PHNYPHMK

Guest
Details From PHNY - LANAI
To PHMK - MOLOKAI
Flight Number -
Tags generated
Created
Modified
Stats Distance 26 nm / 48 km
Max Altitude 500 ft / 152 m
Waypoints 3
Social Downloads 1
Likes 0
Share VATSIM

Download

Looking for another format? Having issues loading an existing format? Contact us
Advertisement - Login to hide

Notes

Basic altitude profile: - Ascent Rate: 2500ft/min - Ascent Speed: 250kts - Cruise Altitude: 35000ft - Cruise Speed: 420kts - Descent Rate: 1500ft/min - Descent Speed: 250kts Options: - Use NATs: yes - Use PACOTS: yes - Use low airways: yes - Use high airways: yes

Route

PHNY LNY PHMK

ID Type Via Altitude Latitude Longitude Leg Dist Tot Dist Heading (true) Name
O PHNY APT - 0 ft / 0 m 20.78564˚ -156.95147˚ - 0 nm - LANAI
LNY VOR - 500 ft / 152 m 20.76450˚ -156.96889˚ 1 nm 1 nm 218° / 218° LANAI VORTAC
O PHMK APT - 0 ft / 0 m 21.15293˚ -157.09650˚ 24 nm 26 nm 343° / 343° MOLOKAI

Altitude Profile

Advertisement - Login to hide

PHNY

Details ICAO PHNY (LNY)
Name LANAI
Region USA (Hawaii)
Timezone Pacific/Honolulu (UTC-10.0)
Stats Elevation 1,308 ft / 399 m (AMSL)
Location 20.785642° -156.951465°
Runways 1
Magnetic Variation 9.473° E

METAR

PHNY 222258Z 06010KT 10SM SCT020 SCT035 25/19 A3008

Decode

TAF

PHNY 221724Z 2218/2318 04015KT P6SM FEW025 SCT040 FM222000 04018G24KT P6SM SCT025 BKN040 FM230600 04015KT P6SM SCT025 SCT045 AMD NOT SKED

Decode

Departure Runways

ID Width Length Bearing (true) Bearing (mag) Surface Threshold Offset Overrun Length
03 150 ft / 46 m 5,013 ft / 1,528 m 43.85° 34.38° Asphalt 0 ft / 0 m 0 ft / 0 m
21 150 ft / 46 m 5,013 ft / 1,528 m 223.85° 214.38° Asphalt 0 ft / 0 m 0 ft / 0 m

PHMK

Details ICAO PHMK (MKK)
Name MOLOKAI
Region USA (Hawaii)
Timezone Pacific/Honolulu (UTC-10.0)
Stats Elevation 454 ft / 138 m (AMSL)
Location 21.152926° -157.096500°
Runways 2
Magnetic Variation 9.500° E

METAR

PHMK 222254Z 03013G23KT 10SM FEW023 SCT029 27/19 A3006 RMK AO2 PK WND 05026/2218 SLP180 T02720194

Decode

TAF

PHMK 221724Z 2218/2318 04013G20KT P6SM FEW025 BKN035 FM222000 04017G26KT P6SM FEW025 SCT050 FM230500 04011G18KT P6SM FEW025 SCT050

Decode

Destination Runways

ID Width Length Bearing (true) Bearing (mag) Surface Threshold Offset Overrun Length
05 100 ft / 30 m 4,503 ft / 1,373 m 60.21° 50.71° Asphalt 0 ft / 0 m 0 ft / 0 m
17 100 ft / 30 m 3,130 ft / 954 m 179.90° 170.40° Asphalt 427 ft / 130 m 0 ft / 0 m
23 100 ft / 30 m 4,503 ft / 1,373 m 240.21° 230.71° Asphalt 0 ft / 0 m 0 ft / 0 m
35 100 ft / 30 m 3,130 ft / 954 m 359.90° 350.40° Asphalt 0 ft / 0 m 0 ft / 0 m

Popular Alternatives